Weather reports worldwide

Advertisment
Grenoble/St.Geoirs, France (7486): temperature & dewpoint: 20.05.2020 15:00:00 - 26.05.2020 15:00:00 (CEST)Grenoble/St.Geoirs, France (7486): temperature 5cm: 20.05.2020 15:00:00 - 26.05.2020 15:00:00 (CEST)Grenoble/St.Geoirs, France (7486): temperature -20cm & temperature -100cm: 20.05.2020 15:00:00 - 26.05.2020 15:00:00 (CEST)Grenoble/St.Geoirs, France (7486): wind speed & gusts: 20.05.2020 15:00:00 - 26.05.2020 15:00:00 (CEST)Grenoble/St.Geoirs, France (7486): wind direction: 20.05.2020 15:00:00 - 26.05.2020 15:00:00 (CEST)Grenoble/St.Geoirs, France (7486): reduced air pressure: 20.05.2020 15:00:00 - 26.05.2020 15:00:00 (CEST)Grenoble/St.Geoirs, France (7486): visibility: 20.05.2020 15:00:00 - 26.05.2020 15:00:00 (CEST)Grenoble/St.Geoirs, France (7486): sunshine duration: 20.05.2020 15:00:00 - 26.05.2020 15:00:00 (CEST)Grenoble/St.Geoirs, France (7486): precipitation: 20.05.2020 15:00:00 - 26.05.2020 15:00:00 (CEST)
Date & Time tt [°C] td [°C] tt 5cm [°C] tt -20cm [°C] tt -100cm [°C] ff [km/h] ff [kn] fx [km/h] fx [kn] dd ppp [hPa] vv [km] sd [min] rr [mm]
26.05.2020 15:00:00 - - - - - - - - - - - - - -
26.05.2020 14:00:00 20,5 10,3 26,2 17,4 15,5 16 9 31 17 NNW 1027,8 15 60 0,0
26.05.2020 13:00:00 20,2 10,3 24,2 17,3 15,4 14 8 32 17 NNW 1027,9 17 60 0,0
26.05.2020 12:00:00 19,5 9,4 23,4 17,3 15,4 16 9 29 16 N 1028,0 18 60 0,0
26.05.2020 11:00:00 18,5 10,3 22,3 17,3 15,4 12 7 40 22 N 1028,1 20 60 0,0
26.05.2020 10:00:00 17,4 9,6 20,5 17,4 15,4 14 7 33 18 NNE 1028,3 21 60 0,0
26.05.2020 09:00:00 14,5 10,1 17,4 17,5 15,4 5 3 12 7 W 1028,8 24 60 0,0
26.05.2020 08:00:00 12,2 9,8 13,9 17,7 15,4 3 2 9 5 SW 1029,1 17 60 0,0
26.05.2020 07:00:00 9,3 8,7 3,3 17,9 15,4 2 1 11 6 ESE 1029,6 13 28 0,0
26.05.2020 06:00:00 8,5 8,1 2,3 18,0 15,4 4 2 10 5 SE 1029,5 17 0 0,0
26.05.2020 05:00:00 8,9 8,3 2,7 18,1 15,4 4 2 7 4 SW 1029,1 19 0 0,0
26.05.2020 04:00:00 9,1 7,7 4,8 18,2 15,4 4 2 9 5 ESE 1029,0 17 0 0,0
26.05.2020 03:00:00 10,3 8,6 4,7 18,3 15,4 3 2 10 6 S 1029,1 20 0 0,0
26.05.2020 02:00:00 13,1 9,5 9,5 18,4 15,4 9 5 13 7 NW 1028,6 22 0 0,0
26.05.2020 01:00:00 13,5 9,9 7,7 18,5 15,4 6 3 12 6 WSW 1028,7 22 0 0,0
26.05.2020 00:00:00 13,8 9,8 9,0 18,5 15,4 6 3 11 6 N 1028,6 23 0 0,0
25.05.2020 23:00:00 15,4 9,5 13,6 18,5 15,4 6 3 28 15 NNE 1028,1 24 0 0,0
25.05.2020 22:00:00 16,7 9,9 15,4 18,4 15,4 16 9 27 15 NNW 1027,6 24 0 0,0
25.05.2020 21:00:00 18,4 10,0 17,3 18,3 15,4 14 7 31 17 NNW 1026,9 27 33 0,0
25.05.2020 20:00:00 20,5 10,9 21,7 18,2 15,4 14 8 32 17 NNW 1026,4 20 60 0,0
25.05.2020 19:00:00 21,5 11,2 24,4 18,0 15,4 22 12 36 20 NNW 1026,4 18 53 0,0
25.05.2020 18:00:00 22,0 12,5 26,1 17,7 15,4 16 9 32 17 N 1026,6 19 60 0,0
25.05.2020 17:00:00 21,6 11,3 26,7 17,4 15,4 18 10 30 16 NW 1026,9 20 60 0,0
25.05.2020 16:00:00 21,0 10,2 26,6 17,2 15,4 13 7 30 16 N 1027,5 21 60 0,0
25.05.2020 15:00:00 20,8 10,9 26,0 17,0 15,4 12 6 36 19 NNW 1027,8 22 60 0,0
25.05.2020 14:00:00 19,9 9,7 24,6 16,9 15,5 14 8 28 15 N 1028,3 19 60 0,0
25.05.2020 13:00:00 19,2 9,7 23,0 16,7 15,4 14 7 29 16 N 1028,5 18 60 0,0
25.05.2020 12:00:00 18,4 9,2 22,4 16,7 15,4 19 11 33 18 N 1028,8 19 60 0,0
25.05.2020 11:00:00 17,5 9,1 20,4 16,8 15,4 16 8 32 18 N 1029,3 19 60 0,0
25.05.2020 10:00:00 16,2 9,4 19,9 16,9 15,4 19 10 30 16 NE 1029,9 16 60 0,0
25.05.2020 09:00:00 13,1 8,4 15,9 17,0 15,4 4 2 10 6 W 1030,3 34 60 0,0
25.05.2020 08:00:00 10,4 8,5 10,9 17,1 15,4 6 3 9 5 SW 1030,8 16 60 0,0
25.05.2020 07:00:00 7,9 7,5 3,2 17,3 15,4 0 0 9 5 N 1030,8 23 22 0,0
25.05.2020 06:00:00 6,6 6,0 2,3 17,4 15,4 5 3 10 6 ESE 1031,0 20 0 0,0
25.05.2020 05:00:00 6,8 5,9 2,6 17,5 15,4 4 2 6 4 NE 1030,8 19 0 0,0
25.05.2020 04:00:00 7,4 6,0 3,5 17,7 15,4 5 3 8 4 SE 1030,6 22 0 0,0
25.05.2020 03:00:00 8,6 6,7 4,9 17,8 15,4 4 2 11 6 NNE 1030,4 22 0 0,0
25.05.2020 02:00:00 11,4 7,3 8,8 17,9 15,4 5 3 20 11 SSE 1029,8 27 0 0,0
25.05.2020 01:00:00 12,8 7,5 9,5 17,9 15,4 11 6 32 17 N 1029,7 27 0 0,0
25.05.2020 00:00:00 12,7 7,2 10,3 18,0 15,4 9 5 22 12 E 1029,7 27 0 0,0
24.05.2020 23:00:00 13,9 7,4 12,2 18,0 15,4 6 4 29 16 N 1029,4 30 0 0,0
24.05.2020 22:00:00 14,6 6,9 13,3 18,0 15,4 15 8 31 17 NNW 1029,1 31 0 0,0
24.05.2020 21:00:00 15,9 6,6 15,0 17,9 15,4 18 10 36 20 NNW 1028,9 36 45 0,0
24.05.2020 20:00:00 17,6 6,5 18,5 17,9 15,5 21 11 44 24 N 1028,4 26 60 0,0
24.05.2020 19:00:00 18,6 7,7 21,2 17,7 15,4 24 13 42 23 NNW 1028,3 21 60 0,0
24.05.2020 18:00:00 19,1 7,5 22,6 17,5 15,4 21 11 45 24 N 1028,4 22 60 0,0
24.05.2020 17:00:00 19,5 9,1 20,2 17,4 15,4 26 14 43 23 NNW 1028,6 26 43 0,0
24.05.2020 16:00:00 18,9 9,9 19,6 17,2 15,4 22 12 37 20 NNW 1029,0 30 27 0,0
24.05.2020 15:00:00 18,6 9,4 20,8 17,0 15,4 18 10 37 20 N 1029,4 25 27 0,0
24.05.2020 14:00:00 18,3 8,3 20,5 16,9 15,4 19 11 39 21 N 1029,6 20 37 0,0
24.05.2020 13:00:00 17,4 9,3 19,0 16,8 15,4 19 10 35 19 N 1030,3 19 40 0,0
24.05.2020 12:00:00 17,2 9,6 20,0 16,8 15,4 16 9 34 18 N 1030,6 19 60 0,0
24.05.2020 11:00:00 15,7 9,1 18,5 16,9 15,4 20 11 36 19 N 1031,0 20 60 0,0
24.05.2020 10:00:00 14,6 8,5 18,2 17,0 15,4 18 10 30 16 N 1031,4 22 60 0,0
24.05.2020 09:00:00 12,4 7,5 12,9 17,1 15,4 6 3 14 8 E 1031,8 47 60 0,0
24.05.2020 08:00:00 10,1 7,2 10,8 17,2 15,4 3 2 12 7 E 1032,0 31 29 0,0
24.05.2020 07:00:00 8,8 7,1 7,2 17,4 15,4 6 3 19 10 ENE 1032,0 27 29 0,0
24.05.2020 06:00:00 8,2 7,0 5,8 17,5 15,4 12 7 21 11 ENE 1031,8 36 0 0,0
24.05.2020 05:00:00 8,5 7,1 5,1 17,7 15,4 3 2 21 11 NE 1031,7 40 0 0,0
24.05.2020 04:00:00 8,8 7,2 6,5 17,8 15,4 13 7 23 12 N 1031,8 37 0 0,0
24.05.2020 03:00:00 8,6 7,1 7,4 17,9 15,4 9 5 28 15 N 1032,4 39 0 0,0
24.05.2020 02:00:00 9,9 7,5 6,5 18,0 15,3 17 9 27 14 NNW 1032,3 43 0 0,0
24.05.2020 01:00:00 9,5 6,9 6,7 18,1 15,3 3 2 16 8 SSW 1032,3 40 0 0,0
24.05.2020 00:00:00 10,3 7,5 8,7 18,2 15,3 4 2 18 10 SSW 1032,5 42 0 0,0
23.05.2020 23:00:00 11,0 8,4 10,9 18,3 15,3 5 3 27 15 SW 1032,4 44 0 0,0
23.05.2020 22:00:00 11,6 9,3 11,5 18,4 15,3 8 4 34 18 NNW 1031,7 47 0 0,0
23.05.2020 21:00:00 12,2 10,4 12,1 18,4 15,3 15 8 27 15 NNW 1031,1 40 28 0,0
23.05.2020 20:00:00 12,2 10,3 11,7 18,5 15,3 9 5 31 17 N 1031,0 41 0 0,0
23.05.2020 19:00:00 12,0 10,1 11,7 18,7 15,3 13 7 26 14 N 1030,3 32 0 0,0
23.05.2020 18:00:00 12,8 10,9 12,8 18,7 15,3 9 5 19 11 N 1031,1 36 0 0,0
23.05.2020 17:00:00 12,3 10,7 11,7 18,8 15,3 5 3 15 8 ENE 1031,1 40 0 1,2
23.05.2020 16:00:00 11,9 10,6 11,2 18,8 15,2 7 4 21 12 N 1031,3 4,4 0 4,9
23.05.2020 15:00:00 12,3 10,2 11,5 18,8 15,2 5 3 23 12 E 1030,7 5 0 1,2
23.05.2020 14:00:00 11,7 10,1 11,1 18,8 15,2 5 3 58 31 WNW 1029,7 6 0 4,4
23.05.2020 13:00:00 14,4 12,8 13,8 18,7 15,2 39 21 63 34 N 1026,8 4,9 1 0,6
23.05.2020 12:00:00 23,5 13,7 23,4 18,7 15,2 16 8 26 14 WNW 1023,9 16 5 0,0
23.05.2020 11:00:00 22,2 13,0 23,8 18,8 15,2 13 7 22 12 WSW 1023,5 16 20 0,0
23.05.2020 10:00:00 21,6 13,8 24,9 18,8 15,1 4 2 11 6 W 1023,4 12 37 0,0
23.05.2020 09:00:00 20,1 14,2 20,0 18,9 15,1 5 3 17 9 ENE 1023,3 23 38 0,0
23.05.2020 08:00:00 18,1 14,4 16,9 19,0 15,1 11 6 19 10 E 1023,4 9 46 0,0
23.05.2020 07:00:00 15,2 13,7 13,0 19,1 15,1 4 2 10 5 NE 1024,1 14 1 0,0
23.05.2020 06:00:00 14,9 13,1 11,4 19,2 15,1 8 4 12 6 NNE 1023,6 15 0 0,0
23.05.2020 05:00:00 15,6 13,1 14,3 19,3 15,1 9 5 18 10 NE 1023,3 17 0 0,0
23.05.2020 04:00:00 18,4 12,6 15,9 19,4 15,1 7 4 19 10 ENE 1023,2 24 0 0,0
23.05.2020 03:00:00 19,9 13,1 17,8 19,5 15,1 10 5 21 12 NW 1023,3 23 0 0,0
23.05.2020 02:00:00 20,8 12,7 17,2 19,5 15,1 7 4 21 12 W 1023,0 25 0 0,0
23.05.2020 01:00:00 20,3 13,5 17,2 19,5 15,0 3 1 22 12 N 1023,2 22 0 0,0
23.05.2020 00:00:00 22,4 12,9 19,8 19,6 15,0 11 6 28 15 SW 1022,8 24 0 0,0
22.05.2020 23:00:00 22,6 13,6 19,2 19,6 15,0 12 6 20 11 WSW 1022,6 23 0 0,0
22.05.2020 22:00:00 23,0 15,1 18,5 19,5 15,0 7 4 16 9 SW 1022,0 20 0 0,0
22.05.2020 21:00:00 24,8 14,0 21,8 19,3 15,0 3 2 18 10 NNE 1021,3 22 0 0,0
22.05.2020 20:00:00 25,8 12,6 24,7 19,2 15,0 9 5 18 10 S 1021,0 20 0 0,0
22.05.2020 19:00:00 27,0 12,6 27,2 19,0 15,0 13 7 20 11 SW 1020,6 23 33 0,0
22.05.2020 18:00:00 28,9 13,2 32,2 18,7 15,0 11 6 24 13 WSW 1020,4 21 60 0,0
22.05.2020 17:00:00 29,5 11,5 33,6 18,5 15,0 8 4 21 11 WSW 1020,7 20 54 0,0
22.05.2020 16:00:00 29,3 8,4 33,7 18,2 14,9 8 4 15 8 SW 1020,9 20 48 0,0
22.05.2020 15:00:00 28,9 15,8 31,7 18,0 15,0 4 2 16 9 SE 1021,1 9 36 0,0
22.05.2020 14:00:00 27,9 15,2 32,6 17,9 14,9 4 2 18 10 W 1021,7 18 57 0,0
22.05.2020 13:00:00 26,6 16,8 32,0 17,8 14,9 5 3 17 9 S 1022,0 14 55 0,0
22.05.2020 12:00:00 25,4 15,4 31,0 17,8 14,9 5 3 11 6 SW 1022,3 31 60 0,0
22.05.2020 11:00:00 24,1 15,0 27,9 17,8 14,9 6 3 13 7 ENE 1022,4 26 60 0,0
22.05.2020 10:00:00 22,3 15,6 23,4 18,0 14,9 9 5 19 10 ENE 1022,3 8 60 0,0
22.05.2020 09:00:00 19,2 14,0 18,9 18,0 14,9 14 8 23 12 E 1022,4 12 57 0,0
22.05.2020 08:00:00 16,3 14,0 15,6 18,2 14,9 13 7 18 10 E 1022,2 18 60 0,0
22.05.2020 07:00:00 12,1 11,2 9,3 18,3 14,9 3 2 17 9 ENE 1022,7 13 23 0,0
22.05.2020 06:00:00 11,4 10,5 8,9 18,4 14,8 8 5 16 9 SE 1022,1 14 0 0,0
22.05.2020 05:00:00 11,1 10,2 9,6 18,5 14,9 10 5 15 8 E 1022,1 13 0 0,0
22.05.2020 04:00:00 12,0 10,9 7,0 18,6 14,8 10 5 13 7 ENE 1022,1 13 0 0,0
22.05.2020 03:00:00 12,7 11,4 11,2 18,7 14,8 13 7 16 9 E 1021,7 14 0 0,0
22.05.2020 02:00:00 13,2 11,9 10,3 18,8 14,8 11 6 13 7 E 1021,7 16 0 0,0
22.05.2020 01:00:00 14,0 12,0 10,4 18,8 14,8 6 4 10 5 E 1021,6 17 0 0,0
22.05.2020 00:00:00 16,3 13,0 12,6 18,9 14,8 6 3 11 6 SE 1021,1 26 0 0,0
21.05.2020 23:00:00 17,5 13,2 14,2 18,8 14,8 8 4 15 8 ESE 1020,7 29 0 0,0
21.05.2020 22:00:00 20,3 12,8 14,6 18,8 14,8 4 2 20 11 N 1020,1 34 0 0,0
21.05.2020 21:00:00 23,4 12,1 20,7 18,7 14,8 8 4 20 11 SSW 1019,0 35 28 0,0
21.05.2020 20:00:00 24,7 13,9 26,4 18,5 14,8 11 6 23 12 NW 1018,2 34 60 0,0
21.05.2020 19:00:00 25,5 13,0 28,5 18,3 14,8 11 6 22 12 NNW 1017,9 32 60 0,0
21.05.2020 18:00:00 25,9 12,4 30,5 18,0 14,7 11 6 29 16 N 1017,8 28 60 0,0
21.05.2020 17:00:00 26,0 12,8 31,2 17,8 14,7 13 7 25 14 NNW 1017,7 26 60 0,0
21.05.2020 16:00:00 25,8 12,3 30,9 17,5 14,7 15 8 29 16 N 1018,0 19 60 0,0
21.05.2020 15:00:00 25,3 11,5 30,7 17,3 14,7 13 7 28 15 NNW 1018,2 24 60 0,0
21.05.2020 14:00:00 24,9 12,1 29,7 17,2 14,7 13 7 25 13 WNW 1018,0 25 60 0,0
21.05.2020 13:00:00 23,6 11,0 29,1 17,1 14,7 13 7 23 12 N 1018,3 26 60 0,0
21.05.2020 12:00:00 22,9 11,6 27,8 17,1 14,7 9 5 23 12 N 1018,4 42 60 0,0
21.05.2020 11:00:00 22,2 11,0 26,4 17,1 14,7 9 5 24 13 NNE 1018,8 26 60 0,0
21.05.2020 10:00:00 20,7 12,7 24,9 17,2 14,7 3 2 9 5 WSW 1019,0 20 60 0,0
21.05.2020 09:00:00 17,0 12,7 19,9 17,3 14,7 2 1 6 3 W 1019,6 31 60 0,0
21.05.2020 08:00:00 - - - - - - - - - - - - - -
21.05.2020 07:00:00 - - - - - - - - - - - - - -
21.05.2020 06:00:00 9,3 9,0 5,3 17,7 14,6 5 3 13 7 ENE 1019,3 14 0 0,0
21.05.2020 05:00:00 9,4 8,5 6,6 17,8 14,6 6 4 11 6 E 1018,7 16 0 0,0
21.05.2020 04:00:00 10,1 9,3 6,3 17,9 14,6 5 3 11 6 E 1018,6 18 0 0,0
21.05.2020 03:00:00 10,5 9,7 6,9 18,0 14,6 6 4 12 6 E 1018,4 20 0 0,0
21.05.2020 02:00:00 11,8 10,7 6,7 18,1 14,6 0 0 8 4 N 1018,2 20 0 0,0
21.05.2020 01:00:00 13,2 11,4 9,5 18,1 14,6 5 3 13 7 S 1018,0 28 0 0,0
21.05.2020 00:00:00 14,2 11,2 8,6 18,1 14,6 4 2 8 5 E 1017,5 31 0 0,0
20.05.2020 23:00:00 16,2 12,0 10,2 18,1 14,6 4 2 18 10 NE 1016,9 35 0 0,0
20.05.2020 22:00:00 18,8 11,8 16,9 18,1 14,6 12 7 28 15 N 1016,1 33 0 0,0
20.05.2020 21:00:00 21,3 11,6 20,0 18,0 14,6 14 7 29 16 NNW 1015,2 23 28 0,0
20.05.2020 20:00:00 23,4 12,7 24,4 17,8 14,6 16 9 34 18 N 1014,5 16 60 0,0
20.05.2020 19:00:00 24,5 13,1 27,0 17,7 14,6 23 13 39 21 NNW 1014,1 9 60 0,0
20.05.2020 18:00:00 25,3 13,5 29,1 17,4 14,6 25 14 42 23 NW 1014,0 11 60 0,0
20.05.2020 17:00:00 25,3 13,8 29,1 17,2 14,6 25 14 38 21 NNW 1014,0 13 60 0,0
20.05.2020 16:00:00 25,6 13,8 28,7 16,9 14,6 23 12 35 19 NW 1014,1 15 54 0,0
20.05.2020 15:00:00 25,3 13,5 29,2 16,8 14,6 22 12 46 25 NNW 1014,3 16 60 0,0

tt = temperature
td = dewpoint
tt 5cm = temperature 5cm
tt -20cm = temperature -20cm
tt -100cm = temperature -100cm
ff = wind speed
fx = gusts
dd = wind direction
ppp = reduced air pressure
vv = visibility
sd = sunshine duration
rr = precipitation

Next stations